STARLINK-34812, 66026

Orbit data source: Space-Track

STARLINK-34812, 66026 is a payload satellite owned by SpaceX/Seattle (US) in LEO that was launched on Thu, 16 Oct 2025 UTC via an FALCON 9 launch vehicle from the Air Force Eastern Test Range (AFETR). Payload-class satellites include a variety of spacecraft equipped with specific instruments for various scientific and technological missions. These include communications satellites like Starlink; space stations such as the ISS; scientific satellites like the Hubble; Earth observation satellites from companies like Planet Labs, Umbra, and HawkEye 360; GPS; miniature CubeSats for education and research; and military/defense satellites.

Loading next visibility...
Identifier
66026, 2025-232X
Orbit
LEO
Country
Flag of USUS
Related business
Manufacturer
SpaceX/Seattle
Mission
Operational spacecraft
Bus & Motor
STARLINK V2MO, Unknown motor
Mass
575 kg wet, ~530 kg dry
Launch date (UTC)
2025-10-16 (2 weeks ago)
Launch vehicle
FALCON 9
Launch site
Air Force Eastern Test Range (AFETR)
Object type
Payload
Rocket body
Debris
Shape & HBR
Unknown shape, 17.7 m
Radar Cross Section
RCS unknown

Expand to show TLE details & history
Last TLE update: 8 hours ago

TLE from 8 hours ago
0 STARLINK-34812
1 66026U 25232X   25299.25001157 -.01668319  00000-0 -78044-2 0  9993
2 66026  53.1557  13.4827 0001026  90.3266 164.7212 15.85481550  1868
Epoch: 2025-10-26T06:00Z
TLE epoch observation values (Epoch: 2025-10-26T06:00:00.999Z)
Latitude
-50.81061°
Longitude
134.66079°
Altitude
333.178 km
Speed
7.708 km/s
True Right ascension
17h 18m 08s
True Declination
-50° 37' 53"
Sunlit
Object was in daylight at epoch
Visualization orbit readout
Latitude
Unknown
Longitude
Unknown
Altitude
Unknown
Speed
Unknown
Apparent Right ascension
Unknown
Apparent Declination
Unknown
Sunlit
N/A
Visualization observer readout
Local Sidereal Time
09:47:10
Azimuth
Unknown
Elevation
Unknown
Doppler factor
Unknown
Orbital elements
Apogee altitude
315.919 km
Perigee altitude
314.545 km
Semi-major axis
6,693.369 km
Eccentricity
0.0001
Inclination
53.1557°
RAAN
13.4827°
Arg. of periapsis
90.3266°
True anomaly
164.7243°
Mean anomaly
164.7212°
Eccentric anomaly
164.72275°
Mean motion
3.96347 °/min
Orbital period
90.83 mins
BSTAR
-0.0078044
Loading maneuver chart data...
Computing Atmospheric mass density...
Loading historical data...
Loading historical data...
Loading historical data...
Loading historical data...
Loading historical data...
Loading historical data...
Loading historical data...

Documentation

Showing up to 5 results
|